Home   Weather   Waterloo   Past weeks

Flag for Canada Past Weather in Waterloo, Ontario, Canada — Yesterday and Last 2 Weeks

Now
34 °F

Light snow. Mostly cloudy.


Feels Like: 25 °F
Forecast: 30 / 36 °F
Wind: 13 mph from East

Location: Waterloo Well

Current Time: Dec 4, 2016 at 9:21:18 pm

Latest Report: Dec 4, 2016 at 8:59 pm


Visibility: 4 mi

Pressure: 29.96 "Hg

Humidity: 93%

Dew Point: 32 °F

Location of WaterlooLocation

Past Weather in Waterloo — Graph

°F

Waterloo Temperature Yesterday

Maximum temperature yesterday: 37 °F (at 9:51 am)
Minimum temperature yesterday: 34 °F (at 2:00 am)
Average temperature yesterday: 36 °F

High & Low Weather Summary for the Past Weeks

 TemperatureHumidityPressure
High55 °F (Nov 29, 2:00 pm)100% (Nov 22, 10:02 pm)30.38 "Hg (Nov 22, 10:02 pm)
Low19 °F (Nov 23, 6:00 am)59% (Nov 21, 11:00 am)29.46 "Hg (Nov 30, 9:00 pm)
Average36 °F86%30.00 "Hg
* Reported Nov 19 8:00 pm — Dec 4 8:04 pm, Waterloo, Weather by CustomWeather, © 2016

Note: Actual official high and low records may vary slightly from our data, if they occured in-between our weather recording intervals... More about our weather records

Advertising

Waterloo Weather History for the Previous 24 Hours

Scroll right to see more
 ConditionsComfort  
Time TempWeatherWind HumidityBarometerVisibility
8:04 pm
Sun, Dec 4
32 °FLight snow. Overcast.10 mph100%30.01 "Hg3 mi
7:58 pm32 °FLight snow. Overcast.12 mph100%30.01 "Hg2 mi
7:00 pm34 °FLight rain. Mostly cloudy.10 mph87%30.06 "Hg5 mi
6:00 pm34 °FMostly cloudy.12 mph87%30.08 "Hg9 mi
5:00 pm34 °FMostly cloudy.12 mph87%30.11 "Hg9 mi
4:00 pm34 °FOvercast.13 mph87%30.12 "Hg9 mi
3:00 pm34 °FOvercast.12 mph87%30.15 "Hg9 mi
2:00 pm36 °FMostly cloudy.8 mph81%30.17 "Hg9 mi
1:00 pm36 °FOvercast.8 mph81%30.20 "Hg9 mi
12:00 pm36 °FOvercast.10 mph81%30.22 "Hg9 mi
11:00 am36 °FOvercast.8 mph87%30.25 "Hg9 mi
10:00 am34 °FLow clouds.6 mph93%30.27 "Hg9 mi
9:00 am34 °FOvercast.2 mph93%30.27 "Hg9 mi
8:00 am34 °FOvercast.3 mph93%30.25 "Hg9 mi
7:00 am32 °FOvercast.No wind100%30.26 "Hg9 mi
6:00 am34 °FOvercast.3 mph93%30.25 "Hg9 mi
5:00 am34 °FOvercast.No wind93%30.25 "Hg9 mi
4:00 am34 °FOvercast.3 mph93%30.27 "Hg9 mi
3:00 am34 °FOvercast.2 mph93%30.28 "Hg9 mi
2:00 am34 °FOvercast.3 mph93%30.26 "Hg9 mi
1:00 am34 °FOvercast.2 mph87%30.27 "Hg9 mi
12:00 am34 °FOvercast.3 mph87%30.27 "Hg9 mi
11:00 pm
Sat, Dec 3
34 °FOvercast.5 mph87%30.26 "Hg9 mi
10:00 pm34 °FOvercast.5 mph87%30.25 "Hg9 mi
9:00 pm34 °FOvercast.5 mph87%30.25 "Hg9 mi
Weather by CustomWeather, © 2016

See weather overviewHow to use our weather pages